Location: Dannhausen
(51.8650°N, 10.1026°E)
Time: 01:38:00
(UTC+00:00)

Cosmos 2233 Rocket - Pass Details

Date: 11 August 2020
Orbit: 952 x 992 km, 82.9° (Epoch: 26 September)

Event Time Altitude Azimuth Distance (km) Brightness Sun altitude
Exits shadow 22:42:15 41° 197° (SSW) 1,409 4.4 -22.6°
Maximum altitude 22:44:40 82° 280° (W) 1,009 4.0 -22.7°
Drops below altitude 10° 22:51:03 10° 9° (N) 2,766 7.4 -22.8°
Sets 22:53:36 0° 10° (N) 3,717 8.3 -22.9°
